Location: Slave Lake
(55.2830°N, 114.7830°W)
Time: 06:53:25
(UTC-07:00)

Amateur Radio Satellites - All Passes

Search period start: 28 February 2015 06:23
Search period end: 01 March 2015 06:23
Location: Slave Lake, 55.2830°N, 114.7830°W

Satellite Date Start Highest point End Downlink Frequencies (MHz)
Time Altitude Azimuth
AIST 1 28 Feb 06:35:57 06:36:56 11° 79° (E) 06:38:07
CUBESAT XI-V 28 Feb 06:36:07 06:40:44 55° 260° (W) 06:45:25 437.345
PCSat 28 Feb 06:48:42 06:53:57 49° 239° (WSW) 06:59:09 145.827
PRISM 28 Feb 06:57:17 07:00:58 30° 265° (W) 07:04:40 437.425
STRAND 1 28 Feb 07:11:04 07:16:00 44° 262° (W) 07:20:57 437.568
JAS-2 28 Feb 07:30:58 07:36:48 29° 307° (NW) 07:42:56 435.910
Cubesat XI-IV 28 Feb 07:36:11 07:41:37 83° 289° (WNW) 07:47:00 437.490
BRITE-PL 28 Feb 07:40:04 07:40:40 10° 77° (ENE) 07:41:29 437.365/2234.400
SO-50 28 Feb 07:41:40 07:45:52 28° 5° (N) 07:50:08 436.795
GONETS M04 28 Feb 07:45:20 07:52:45 30° 52° (NE) 08:00:19
CUTE-I 28 Feb 07:46:04 07:51:27 72° 290° (WNW) 07:56:48 437.470
AIST 1 28 Feb 08:09:28 08:13:49 69° 98° (E) 08:18:13
AO-7 28 Feb 08:10:47 08:17:18 26° 324° (NW) 08:23:40 29.400- 29.500
UNISAT 6 28 Feb 08:26:11 08:28:28 14° 52° (NE) 08:30:52 437.425
RS-15 28 Feb 08:33:34 08:44:52 82° 227° (SW) 08:56:40 29.354- 29.394
PCSat 28 Feb 08:35:26 08:36:16 10° 258° (WSW) 08:36:47 145.827
HO-68 28 Feb 08:40:38 08:46:49 31° 91° (E) 08:53:05 435.675
DOVE 4 28 Feb 08:45:21 08:48:21 18° 86° (E) 08:51:22 437.250
NANOSAT C BR1 28 Feb 08:47:16 08:49:20 14° 52° (NE) 08:51:31 145.865
TIGRISAT 28 Feb 08:51:29 08:54:43 21° 58° (ENE) 08:58:00 435.000
AAUSAT CUBESAT 2 28 Feb 08:56:45 08:59:43 19° 88° (E) 09:02:48 437.432
COMPASS 1 28 Feb 08:56:58 09:00:11 21° 90° (E) 09:03:28 437.405
ANTELSAT 28 Feb 09:03:04 09:06:40 26° 60° (ENE) 09:10:16 437.575/2403.000
CINEMA 3 28 Feb 09:13:43 09:16:40 18° 87° (E) 09:19:40 145.822/145.860
BRITE-PL 28 Feb 09:15:40 09:20:31 61° 101° (E) 09:24:58 437.365/2234.400
Cubesat XI-IV 28 Feb 09:17:06 09:21:05 21° 309° (NW) 09:24:57 437.490
QB50P1 28 Feb 09:17:51 09:21:08 22° 58° (ENE) 09:24:30 145.935-145.965
JAS-2 28 Feb 09:18:07 09:19:54 11° 331° (NNW) 09:21:30 435.910
CANX-2 28 Feb 09:18:35 09:22:42 46° 98° (E) 09:26:49 2200.000
SEEDS 28 Feb 09:19:50 09:23:47 38° 97° (E) 09:27:46 437.485
QB50P2 28 Feb 09:20:35 09:23:58 23° 59° (ENE) 09:27:25 145.880/145.840
UWE-3 28 Feb 09:22:02 09:23:23 11° 82° (E) 09:24:55 435.000/436.395/437.385
SO-50 28 Feb 09:22:42 09:27:26 46° 28° (NNE) 09:32:12 436.795
CUTE-I 28 Feb 09:27:06 09:30:48 19° 311° (NW) 09:34:21 437.470
O/OREOS (USA 219) 28 Feb 09:29:08 09:31:30 14° 100° (E) 09:34:02 437.305
GOMX 1 28 Feb 09:34:30 09:39:07 63° 101° (E) 09:43:26 467.674
CUTE 1.7 + AOD 2 28 Feb 09:37:34 09:41:49 63° 102° (ESE) 09:46:02 437.475
DUCHIFAT 1 28 Feb 09:37:42 09:41:25 30° 62° (ENE) 09:45:12 145.980
BUGSAT 1 28 Feb 09:42:09 09:45:46 27° 61° (ENE) 09:49:25 437.445
GONETS M04 28 Feb 09:42:12 09:50:59 88° 78° (ENE) 09:59:48
AIST 1 28 Feb 09:48:43 09:52:01 20° 300° (WNW) 09:55:16
CUBEBUG 2 28 Feb 09:52:19 09:55:45 24° 91° (E) 09:59:12 437.445
POLYITAN 1 28 Feb 09:54:19 09:58:21 42° 66° (ENE) 10:02:26 437.675
POPSAT HIP 1 28 Feb 09:56:13 10:00:17 43° 66° (ENE) 10:04:22 437.405
UNISAT 6 28 Feb 10:00:15 10:04:38 72° 72° (ENE) 10:08:58 437.425
AO-7 28 Feb 10:03:04 10:07:23 15° 352° (N) 10:11:38 29.400- 29.500
Oscar 11 28 Feb 10:04:08 10:08:14 40° 97° (E) 10:12:20 145.826/435.025
AISAT 28 Feb 10:15:32 10:17:58 15° 85° (E) 10:20:32 437.250
DELFI C3 28 Feb 10:20:06 10:24:03 45° 99° (E) 10:28:00 145.870
NANOSAT C BR1 28 Feb 10:20:15 10:24:30 68° 71° (ENE) 10:28:47 145.865
DOVE 4 28 Feb 10:22:18 10:26:47 71° 288° (WNW) 10:31:00 437.250
DX 1 28 Feb 10:23:47 10:27:44 32° 95° (E) 10:31:41 434.975-435.025
VELOX 1 28 Feb 10:26:01 10:28:58 17° 87° (E) 10:32:01 145.980
TIGRISAT 28 Feb 10:26:44 10:31:08 70° 256° (WSW) 10:35:28 435.000
HO-68 28 Feb 10:28:05 10:35:18 77° 293° (WNW) 10:42:29 435.675
AAUSAT CUBESAT 2 28 Feb 10:31:40 10:35:50 65° 289° (WNW) 10:39:59 437.432
COMPASS 1 28 Feb 10:32:08 10:36:16 57° 290° (WNW) 10:40:23 437.405
ESTCUBE 1 28 Feb 10:32:28 10:33:55 11° 81° (E) 10:35:34 437.505/2401.250
ANTELSAT 28 Feb 10:38:57 10:43:16 53° 259° (W) 10:47:32 437.575/2403.000
FUNcube-1 28 Feb 10:43:15 10:47:19 49° 99° (E) 10:51:21 145.935
ZACube-1 28 Feb 10:43:30 10:47:34 50° 99° (E) 10:51:38 437.345
DANDE 28 Feb 10:45:11 10:47:37 19° 59° (ENE) 10:49:48 436.750
RS-15 28 Feb 10:46:25 10:55:58 32° 252° (WSW) 11:05:34 29.354- 29.394
CINEMA 3 28 Feb 10:50:10 10:54:27 66° 289° (WNW) 10:58:34 145.822/145.860
QB50P1 28 Feb 10:52:26 10:56:42 64° 258° (WSW) 11:00:59 145.935-145.965
BRITE-PL 28 Feb 10:54:40 10:58:42 26° 303° (WNW) 11:02:26 437.365/2234.400
CANX-2 28 Feb 10:54:51 10:58:31 28° 298° (WNW) 11:02:07 2200.000
QB50P2 28 Feb 10:55:20 10:59:36 60° 258° (WSW) 11:03:52 145.880/145.840
SEEDS 28 Feb 10:55:47 10:59:35 32° 296° (WNW) 11:03:21 437.485
UWE-3 28 Feb 10:56:36 11:00:48 78° 103° (ESE) 11:04:58 435.000/436.395/437.385
UKube-1 28 Feb 10:56:37 11:00:57 58° 102° (ESE) 11:05:15 .
SO-50 28 Feb 11:03:20 11:08:11 58° 230° (SW) 11:13:02 436.795
O/OREOS (USA 219) 28 Feb 11:05:39 11:10:15 80° 118° (ESE) 11:14:52 437.305
HUMSAT D 28 Feb 11:07:48 11:11:49 49° 100° (E) 11:15:49 437.325/437.525
Oscar 19 28 Feb 11:08:56 11:12:11 17° 49° (NE) 11:15:32 437.125/150
DUCHIFAT 1 28 Feb 11:13:04 11:17:11 43° 262° (W) 11:21:17 145.980
GOMX 1 28 Feb 11:13:11 11:16:55 24° 303° (WNW) 11:20:23 467.674
CUTE 1.7 + AOD 2 28 Feb 11:14:07 11:17:25 22° 301° (WNW) 11:20:39 437.475
BUGSAT 1 28 Feb 11:16:54 11:21:04 49° 260° (W) 11:25:16 437.445
ISS 28 Feb 11:21:27 11:23:45 18° 151° (SSE) 11:26:06 145.825
CUBEBUG 2 28 Feb 11:28:41 11:32:45 48° 292° (WNW) 11:36:45 437.445
CUSAT 1 28 Feb 11:30:15 11:33:13 83° 76° (ENE) 11:35:51 437.405
POLYITAN 1 28 Feb 11:30:36 11:34:26 30° 266° (W) 11:38:14 437.675
50 SAT 28 Feb 11:32:25 11:36:22 62° 103° (ESE) 11:40:16 437.505
POPSAT HIP 1 28 Feb 11:32:31 11:36:20 30° 266° (W) 11:40:07 437.405
UNISAT 6 28 Feb 11:38:52 11:41:58 18° 272° (W) 11:44:56 437.425
GONETS M04 28 Feb 11:39:48 11:46:55 28° 282° (WNW) 11:53:51
Oscar 11 28 Feb 11:40:29 11:44:22 32° 297° (WNW) 11:48:13 145.826/435.025
AISAT 28 Feb 11:50:50 11:55:22 87° 111° (ESE) 11:59:49 437.250
AO-7 28 Feb 11:52:05 11:57:03 18° 20° (NNE) 12:02:08 29.400- 29.500
DELFI C3 28 Feb 11:55:39 11:59:07 27° 298° (WNW) 12:02:32 145.870
NANOSAT C BR1 28 Feb 11:57:44 12:00:52 19° 271° (W) 12:03:54 145.865
Gurwin Techsat 1B 28 Feb 11:58:19 12:01:11 15° 46° (NE) 12:04:13 435.225
DX 1 28 Feb 11:59:58 12:04:07 41° 295° (WNW) 12:08:12 434.975-435.025
DOVE 4 28 Feb 12:01:24 12:03:48 14° 310° (NW) 12:06:02 437.250
VELOX 1 28 Feb 12:01:40 12:06:10 79° 289° (WNW) 12:10:37 145.980
CUBEBUG 1 28 Feb 12:03:31 12:07:56 59° 101° (ESE) 12:12:17 437.445
ESTCUBE 1 28 Feb 12:07:12 12:11:47 68° 104° (ESE) 12:16:20 437.505/2401.250
TIGRISAT 28 Feb 12:07:25 12:08:48 11° 278° (W) 12:09:58 435.000
AAUSAT CUBESAT 2 28 Feb 12:08:54 12:10:47 13° 308° (NW) 12:12:31 437.432
COMPASS 1 28 Feb 12:09:43 12:11:13 12° 310° (NW) 12:12:34 437.405
HO-68 28 Feb 12:16:26 12:22:09 26° 316° (NW) 12:27:47 435.675
FUNcube-1 28 Feb 12:20:00 12:23:30 26° 299° (WNW) 12:26:54 145.935
ZACube-1 28 Feb 12:20:18 12:23:46 25° 299° (WNW) 12:27:10 437.345
DANDE 28 Feb 12:28:26 12:31:03 24° 268° (W) 12:33:20 436.750
CINEMA 3 28 Feb 12:28:55 12:30:55 13° 309° (NW) 12:32:46 145.822/145.860
UKube-1 28 Feb 12:33:16 12:36:51 24° 301° (WNW) 12:40:21 .
QB50P1 28 Feb 12:33:18 12:33:34 10° 279° (W) 12:33:37 145.935-145.965
UWE-3 28 Feb 12:34:01 12:36:56 18° 304° (WNW) 12:39:43 435.000/436.395/437.385
ITAMSAT 1 28 Feb 12:39:01 12:43:32 31° 58° (ENE) 12:48:08 435.822/435.867
HUMSAT D 28 Feb 12:43:59 12:47:25 25° 299° (WNW) 12:50:48 437.325/437.525
SO-50 28 Feb 12:45:35 12:47:54 13° 249° (WSW) 12:50:02 436.795
Oscar 19 28 Feb 12:45:40 12:50:47 71° 71° (ENE) 12:55:57 437.125/150
SPROUT 28 Feb 12:46:01 12:50:12 46° 98° (E) 12:54:21 437.525
O/OREOS (USA 219) 28 Feb 12:46:24 12:50:13 25° 322° (NW) 12:54:03 437.305
ISS 28 Feb 12:56:37 12:59:40 39° 170° (S) 13:02:44 145.825
TISAT 1 28 Feb 12:59:13 13:03:25 54° 101° (E) 13:07:34 437.305
SWISSCUBE 28 Feb 13:02:23 13:05:16 16° 85° (E) 13:08:18 437.505
50 SAT 28 Feb 13:08:06 13:11:03 20° 301° (WNW) 13:13:57 437.505
BEESAT 28 Feb 13:11:21 13:14:29 18° 86° (E) 13:17:46 436.000
AISAT 28 Feb 13:28:19 13:31:27 19° 306° (NW) 13:34:28 437.250
Gurwin Techsat 1B 28 Feb 13:35:02 13:40:13 57° 67° (ENE) 13:45:28 435.225
HORYU 2 28 Feb 13:35:34 13:38:48 20° 56° (NE) 13:42:06 437.375
ITUPSAT 1 28 Feb 13:36:32 13:40:37 27° 92° (E) 13:44:43 437.325
VELOX 1 28 Feb 13:39:20 13:42:08 16° 308° (NW) 13:44:48 145.980
AO-7 28 Feb 13:40:21 13:47:40 37° 46° (NE) 13:55:04 29.400- 29.500
CUBEBUG 1 28 Feb 13:40:22 13:44:02 25° 301° (WNW) 13:47:36 437.445
ESTCUBE 1 28 Feb 13:44:41 13:48:18 23° 303° (WNW) 13:51:52 437.505/2401.250
KKS-1 28 Feb 14:04:37 14:06:14 12° 83° (E) 14:08:03 437.445
HO-68 28 Feb 14:05:13 14:07:36 12° 341° (NNW) 14:09:51 435.675
STARS 28 Feb 14:17:34 14:18:18 10° 81° (E) 14:19:15 437.465
ITAMSAT 1 28 Feb 14:17:39 14:22:49 59° 258° (WSW) 14:28:02 435.822/435.867
JAS-2 28 Feb 14:22:07 14:26:42 25° 49° (NE) 14:31:47 435.910
SPROUT 28 Feb 14:22:25 14:26:10 29° 299° (WNW) 14:29:51 437.525
Oscar 19 28 Feb 14:26:36 14:30:43 23° 271° (W) 14:34:45 437.125/150
O/OREOS (USA 219) 28 Feb 14:29:48 14:31:20 11° 347° (NNW) 14:32:49 437.305
ISS 28 Feb 14:32:43 14:35:47 39° 190° (S) 14:38:50 145.825
TISAT 1 28 Feb 14:35:29 14:38:59 25° 300° (WNW) 14:42:25 437.305
SWISSCUBE 28 Feb 14:39:05 14:43:57 86° 109° (ESE) 14:48:47 437.505
BEESAT 28 Feb 14:48:13 14:53:03 86° 291° (WNW) 14:57:53 436.000
YUBILEINY 28 Feb 14:52:04 14:56:56 17° 69° (ENE) 15:02:13 435.215
HORYU 2 28 Feb 15:10:35 15:15:02 76° 255° (WSW) 15:19:30 437.375
ITUPSAT 1 28 Feb 15:14:06 15:18:52 57° 292° (WNW) 15:23:35 437.325
Gurwin Techsat 1B 28 Feb 15:15:51 15:20:33 30° 268° (W) 15:25:14 435.225
AO-7 28 Feb 15:31:29 15:39:53 84° 249° (WSW) 15:48:17 29.400- 29.500
KKS-1 28 Feb 15:39:20 15:43:49 73° 104° (ESE) 15:48:15 437.445
Cubesat XI-IV 28 Feb 15:48:33 15:51:51 17° 47° (NE) 15:55:19 437.490
STARS 28 Feb 15:51:22 15:55:46 65° 103° (ESE) 16:00:08 437.465
CUTE-I 28 Feb 15:57:50 16:01:28 19° 49° (NE) 16:05:12 437.470
ITAMSAT 1 28 Feb 16:01:43 16:03:35 11° 280° (W) 16:05:12 435.822/435.867
JAS-2 28 Feb 16:05:27 16:11:04 88° 252° (WSW) 16:17:28 435.910
ISS 28 Feb 16:09:24 16:11:41 18° 209° (SSW) 16:13:56 145.825
O/OREOS (USA 219) 28 Feb 16:11:30 16:12:53 11° 12° (NNE) 16:14:18 437.305
SWISSCUBE 28 Feb 16:17:44 16:21:18 21° 306° (NW) 16:24:46 437.505
BEESAT 28 Feb 16:26:57 16:30:20 19° 307° (NW) 16:33:37 436.000
MOZHAYETS 4 28 Feb 16:33:39 16:37:10 21° 89° (E) 16:40:46
YUBILEINY 28 Feb 16:43:31 16:52:01 60° 93° (E) 17:00:40 435.215
HORYU 2 28 Feb 16:50:32 16:52:34 13° 276° (W) 16:54:25 437.375
ITUPSAT 1 28 Feb 16:53:27 16:55:53 14° 313° (NW) 16:58:11 437.325
M-CUBED/EXP-1 PRIME 28 Feb 17:06:45 17:10:31 38° 105° (ESE) 17:14:36 437.505
AUBIESAT-1 28 Feb 17:10:45 17:14:32 38° 105° (ESE) 17:18:37 437.475
KKS-1 28 Feb 17:16:40 17:20:04 21° 304° (NW) 17:23:23 437.445
Cubesat XI-IV 28 Feb 17:25:48 17:31:07 65° 68° (ENE) 17:36:29 437.490
AO-7 28 Feb 17:27:14 17:34:02 26° 273° (W) 17:40:36 29.400- 29.500
STARS 28 Feb 17:28:26 17:31:55 23° 303° (WNW) 17:35:19 437.465
HO-68 28 Feb 17:32:41 17:37:13 19° 35° (NE) 17:41:53 435.675
CUTE-I 28 Feb 17:35:27 17:40:48 74° 70° (ENE) 17:46:13 437.470
BEESAT 3 28 Feb 17:45:02 17:46:43 12° 113° (ESE) 17:48:35 437.485
O/OREOS (USA 219) 28 Feb 17:50:15 17:54:01 24° 37° (NE) 17:57:48 437.305
JAS-2 28 Feb 17:53:14 17:57:23 20° 279° (W) 18:01:40 435.910
BEESAT 2 28 Feb 18:06:49 18:09:29 17° 116° (ESE) 18:12:15 435.950
AIST 1 28 Feb 18:09:11 18:13:23 40° 69° (ENE) 18:17:34
MOZHAYETS 4 28 Feb 18:10:16 18:14:54 67° 289° (WNW) 18:19:30
DOVE 4 28 Feb 18:23:42 18:25:06 11° 47° (NE) 18:26:38 437.250
CUBESAT XI-V 28 Feb 18:25:50 18:29:41 24° 90° (E) 18:33:33 437.345
PRISM 28 Feb 18:32:25 18:35:55 25° 92° (E) 18:39:27 437.425
YUBILEINY 28 Feb 18:40:57 18:49:19 46° 297° (WNW) 18:57:42 435.215
M-CUBED/EXP-1 PRIME 28 Feb 18:41:50 18:45:27 34° 302° (WNW) 18:49:19 437.505
CANX-2 28 Feb 18:44:59 18:47:26 16° 54° (NE) 18:50:00 2200.000
AUBIESAT-1 28 Feb 18:45:46 18:49:25 35° 302° (WNW) 18:53:18 437.475
SEEDS 28 Feb 18:46:04 18:47:59 13° 52° (NE) 18:50:02 437.485
BRITE-PL 28 Feb 18:55:17 19:00:07 32° 61° (ENE) 19:04:49 437.365/2234.400
CUTE 1.7 + AOD 2 28 Feb 19:03:15 19:06:15 20° 57° (ENE) 19:09:21 437.475
Cubesat XI-IV 28 Feb 19:07:06 19:11:42 27° 269° (W) 19:16:14 437.490
GOMX 1 28 Feb 19:12:00 19:16:33 30° 61° (ENE) 19:20:56 467.674
STRAND 1 28 Feb 19:13:53 19:18:41 38° 96° (E) 19:23:30 437.568
HO-68 28 Feb 19:16:43 19:23:30 50° 58° (ENE) 19:30:23 435.675
CUTE-I 28 Feb 19:17:10 19:21:30 24° 271° (W) 19:25:45 437.470
BEESAT 3 28 Feb 19:20:02 19:24:07 65° 132° (SE) 19:28:16 437.485
CUBEBUG 2 28 Feb 19:24:35 19:25:46 11° 49° (NE) 19:27:06 437.445
AIST 2 28 Feb 19:28:08 19:32:02 35° 124° (SE) 19:36:00 435.215
O/OREOS (USA 219) 28 Feb 19:29:24 19:34:03 85° 240° (WSW) 19:38:39 437.305
Oscar 11 28 Feb 19:32:11 19:34:35 15° 53° (NE) 19:37:06 145.826/435.025
DELFI C3 28 Feb 19:42:27 19:44:28 14° 53° (NE) 19:46:36 145.870
BEESAT 2 28 Feb 19:42:58 19:47:07 85° 136° (SE) 19:51:21 435.950
AIST 1 28 Feb 19:47:03 19:50:59 31° 270° (W) 19:54:50
MOZHAYETS 4 28 Feb 19:48:48 19:51:24 15° 309° (NW) 19:53:52
DX 1 28 Feb 19:52:39 19:55:01 15° 51° (NE) 19:57:29 434.975-435.025
AAUSAT CUBESAT 2 28 Feb 19:54:38 19:58:21 33° 64° (ENE) 20:02:06 437.432
COMPASS 1 28 Feb 19:55:18 19:59:07 37° 65° (ENE) 20:02:59 437.405
DOVE 4 28 Feb 19:57:05 20:01:56 45° 67° (ENE) 20:06:33 437.250
CUBESAT XI-V 28 Feb 20:02:50 20:07:32 61° 290° (WNW) 20:12:11 437.345
PRISM 28 Feb 20:07:34 20:11:42 50° 292° (WNW) 20:15:48 437.425
FUNcube-1 28 Feb 20:11:40 20:14:31 18° 56° (NE) 20:17:25 145.935
ZACube-1 28 Feb 20:12:02 20:14:56 18° 56° (ENE) 20:17:53 437.345
CANX-2 28 Feb 20:18:35 20:22:49 84° 74° (ENE) 20:27:04 2200.000
SEEDS 28 Feb 20:18:58 20:23:07 69° 72° (ENE) 20:27:19 437.485
CINEMA 3 28 Feb 20:21:53 20:26:21 43° 67° (ENE) 20:30:40 145.822/145.860
UKube-1 28 Feb 20:23:47 20:27:10 23° 57° (ENE) 20:30:36 .
UWE-3 28 Feb 20:25:19 20:28:56 26° 61° (ENE) 20:32:32 435.000/436.395/437.385
BRITE-PL 28 Feb 20:32:49 20:38:25 61° 259° (W) 20:43:45 437.365/2234.400
HUMSAT D 28 Feb 20:33:06 20:35:40 16° 55° (NE) 20:38:17 437.325/437.525
CUTE 1.7 + AOD 2 28 Feb 20:37:34 20:41:47 73° 257° (WSW) 20:46:02 437.475
YUBILEINY 28 Feb 20:43:41 20:49:08 17° 327° (NNW) 20:54:23 435.215
GOMX 1 28 Feb 20:49:09 20:54:28 60° 260° (W) 20:59:30 467.674
50 SAT 28 Feb 20:52:57 20:55:30 17° 57° (ENE) 20:58:07 437.505
STRAND 1 28 Feb 20:53:06 20:58:01 44° 297° (WNW) 21:02:53 437.568
CUBEBUG 2 28 Feb 20:57:19 21:01:40 52° 68° (ENE) 21:05:55 437.445
BEESAT 3 28 Feb 20:58:39 21:02:30 35° 334° (NNW) 21:06:23 437.485
GONETS M04 28 Feb 20:58:42 21:04:49 23° 74° (ENE) 21:11:14
HO-68 28 Feb 21:04:24 21:11:20 50° 261° (W) 21:18:18 435.675
Oscar 11 28 Feb 21:05:50 21:10:08 77° 74° (ENE) 21:14:29 145.826/435.025
AIST 2 28 Feb 21:06:18 21:10:33 54° 325° (NW) 21:14:48 435.215
O/OREOS (USA 219) 28 Feb 21:10:04 21:12:50 16° 259° (W) 21:15:28 437.305
DELFI C3 28 Feb 21:15:01 21:19:03 77° 73° (ENE) 21:23:08 145.870
AISAT 28 Feb 21:19:57 21:23:58 33° 62° (ENE) 21:28:00 437.250
BEESAT 2 28 Feb 21:21:59 21:25:45 31° 338° (NNW) 21:29:31 435.950
DX 1 28 Feb 21:26:12 21:30:35 70° 71° (ENE) 21:35:00 434.975-435.025
AAUSAT CUBESAT 2 28 Feb 21:30:08 21:33:59 36° 264° (W) 21:37:52 437.432
VELOX 1 28 Feb 21:30:21 21:34:30 38° 64° (ENE) 21:38:41 145.980
COMPASS 1 28 Feb 21:31:08 21:34:54 32° 265° (W) 21:38:40 437.405
CUBEBUG 1 28 Feb 21:31:47 21:35:10 22° 57° (ENE) 21:38:39 437.445
DOVE 4 28 Feb 21:35:08 21:39:50 35° 266° (W) 21:44:17 437.250
PCSat 28 Feb 21:37:31 21:42:19 34° 117° (ESE) 21:47:12 145.827
ESTCUBE 1 28 Feb 21:38:14 21:41:59 26° 59° (ENE) 21:45:48 437.505/2401.250
CUBESAT XI-V 28 Feb 21:41:42 21:44:10 14° 310° (NW) 21:46:29 437.345
PRISM 28 Feb 21:45:15 21:46:21 11° 312° (NW) 21:47:17 437.425
FUNcube-1 28 Feb 21:46:02 21:50:25 85° 256° (WSW) 21:54:43 145.935
ZACube-1 28 Feb 21:46:28 21:50:51 83° 254° (WSW) 21:55:10 437.345
SEEDS 28 Feb 21:56:29 21:59:27 18° 272° (W) 22:02:19 437.485
CANX-2 28 Feb 21:56:52 21:59:25 15° 275° (W) 22:01:50 2200.000
UKube-1 28 Feb 21:58:38 22:02:59 65° 257° (WSW) 22:07:21 .
CINEMA 3 28 Feb 21:59:22 22:03:42 33° 266° (W) 22:07:50 145.822/145.860
UWE-3 28 Feb 22:00:56 22:05:17 54° 260° (W) 22:09:32 435.000/436.395/437.385
HUMSAT D 28 Feb 22:06:43 22:10:56 90° 102° (ESE) 22:15:08 437.325/437.525
TIGRISAT 28 Feb 22:12:18 22:14:38 15° 86° (E) 22:17:06 435.000
SPROUT 28 Feb 22:13:10 22:15:56 17° 54° (NE) 22:18:46 437.525
BRITE-PL 28 Feb 22:15:25 22:18:02 13° 280° (W) 22:20:22 437.365/2234.400
CUTE 1.7 + AOD 2 28 Feb 22:17:16 22:18:36 11° 278° (W) 22:19:46 437.475
ANTELSAT 28 Feb 22:24:12 22:27:14 19° 89° (E) 22:30:21 437.575/2403.000
TISAT 1 28 Feb 22:24:25 22:27:25 19° 56° (NE) 22:30:29 437.305
50 SAT 28 Feb 22:26:04 22:30:05 79° 258° (WSW) 22:34:04 437.505
GOMX 1 28 Feb 22:31:34 22:33:40 12° 280° (W) 22:35:28 467.674
QB50P1 28 Feb 22:31:50 22:33:57 14° 85° (E) 22:36:13 145.935-145.965
STRAND 1 28 Feb 22:34:05 22:36:07 12° 317° (NW) 22:38:00 437.568
QB50P2 28 Feb 22:34:43 22:37:05 15° 86° (E) 22:39:35 145.880/145.840
CUBEBUG 2 28 Feb 22:34:52 22:38:39 25° 268° (W) 22:42:17 437.445
BEESAT 3 28 Feb 22:38:17 22:41:36 22° 357° (N) 22:44:54 437.485
SWISSCUBE 28 Feb 22:42:51 22:43:18 10° 43° (NE) 22:43:56 437.505
Oscar 11 28 Feb 22:44:04 22:46:56 17° 273° (W) 22:49:41 145.826/435.025
AIST 2 28 Feb 22:46:19 22:49:57 25° 348° (NNW) 22:53:34 435.215
YUBILEINY 28 Feb 22:51:00 22:51:02 10° 0° (N) 22:51:05 435.215
BEESAT 28 Feb 22:51:05 22:52:15 11° 44° (NE) 22:53:36 436.000
DUCHIFAT 1 28 Feb 22:51:14 22:54:20 20° 89° (E) 22:57:29 145.980
GONETS M04 28 Feb 22:51:45 23:00:25 78° 98° (E) 23:09:08
DELFI C3 28 Feb 22:52:20 22:54:51 15° 273° (W) 22:57:15 145.870
BUGSAT 1 28 Feb 22:52:59 22:55:37 16° 87° (E) 22:58:19 437.445
AISAT 28 Feb 22:56:11 23:00:30 43° 262° (W) 23:04:50 437.250
HO-68 28 Feb 22:58:23 23:01:07 12° 285° (WNW) 23:03:26 435.675
BEESAT 2 28 Feb 23:01:40 23:04:59 22° 1° (N) 23:08:19 435.950
DX 1 28 Feb 23:04:08 23:07:21 19° 271° (W) 23:10:29 434.975-435.025
CUBEBUG 1 28 Feb 23:06:43 23:11:10 70° 256° (WSW) 23:15:40 437.445
VELOX 1 28 Feb 23:06:57 23:11:08 36° 264° (W) 23:15:18 145.980
CUSAT 1 28 Feb 23:07:18 23:08:17 11° 86° (E) 23:09:30 437.405
RS-15 28 Feb 23:08:22 23:16:44 28° 105° (ESE) 23:25:33 29.354- 29.394
POLYITAN 1 28 Feb 23:08:37 23:12:18 28° 93° (E) 23:15:59 437.675
POPSAT HIP 1 28 Feb 23:10:13 23:13:55 28° 94° (E) 23:17:37 437.405
ESTCUBE 1 28 Feb 23:14:09 23:18:37 57° 259° (W) 23:23:08 437.505/2401.250
ITUPSAT 1 28 Feb 23:15:13 23:17:57 16° 49° (NE) 23:20:48 437.325
PCSat 28 Feb 23:20:06 23:25:30 65° 317° (NW) 23:30:58 145.827
UNISAT 6 28 Feb 23:21:38 23:25:52 57° 101° (E) 23:30:07 437.425
FUNcube-1 28 Feb 23:25:16 23:27:30 13° 276° (W) 23:29:33 145.935
ZACube-1 28 Feb 23:25:50 23:27:59 13° 276° (W) 23:29:59 437.345
NANOSAT C BR1 28 Feb 23:34:02 23:38:08 45° 99° (E) 23:42:13 145.865
UKube-1 28 Feb 23:39:09 23:40:07 10° 278° (W) 23:40:51 .
HUMSAT D 28 Feb 23:45:09 23:47:24 14° 275° (W) 23:49:31 437.325/437.525
SPROUT 28 Feb 23:47:07 23:51:28 88° 83° (E) 23:55:52 437.525
TIGRISAT 28 Feb 23:47:47 23:52:05 87° 287° (WNW) 23:56:23 435.000
TISAT 1 28 Feb 23:58:29 00:02:47 79° 255° (WSW) 00:07:06 437.305
ANTELSAT 01 Mar 00:00:16 00:04:32 67° 289° (WNW) 00:08:48 437.575/2403.000
DANDE 01 Mar 00:03:51 00:09:04 28° 94° (E) 00:13:19 436.750
50 SAT 01 Mar 00:04:30 00:05:51 11° 276° (W) 00:07:03 437.505
QB50P1 01 Mar 00:06:17 00:10:34 88° 104° (ESE) 00:14:49 145.935-145.965
QB50P2 01 Mar 00:09:24 00:13:41 86° 287° (WNW) 00:17:55 145.880/145.840
SWISSCUBE 01 Mar 00:15:36 00:20:03 40° 63° (ENE) 00:24:34 437.505
BEESAT 3 01 Mar 00:17:05 00:20:47 29° 20° (NNE) 00:24:28 437.485
BEESAT 01 Mar 00:24:33 00:29:04 43° 64° (ENE) 00:33:37 436.000
AIST 2 01 Mar 00:26:06 00:29:42 25° 12° (NNE) 00:33:19 435.215
DUCHIFAT 1 01 Mar 00:26:24 00:30:38 63° 290° (WNW) 00:34:47 145.980
BUGSAT 1 01 Mar 00:27:28 00:31:43 77° 287° (WNW) 00:35:52 437.445
BEESAT 2 01 Mar 00:40:22 00:44:12 33° 24° (NNE) 00:48:02 435.950
POLYITAN 1 01 Mar 00:44:21 00:48:25 44° 294° (WNW) 00:52:26 437.675
CUSAT 1 01 Mar 00:44:55 00:50:47 59° 100° (E) 00:55:10 437.405
POPSAT HIP 1 01 Mar 00:45:56 00:49:59 43° 294° (WNW) 00:53:59 437.405
CUBEBUG 1 01 Mar 00:46:50 00:48:30 12° 278° (W) 00:49:57 437.445
YUBILEINY 01 Mar 00:47:31 00:52:53 17° 34° (NE) 00:58:30 435.215
ITUPSAT 1 01 Mar 00:50:20 00:55:05 67° 69° (ENE) 00:59:54 437.325
GONETS M04 01 Mar 00:50:22 00:58:15 35° 304° (WNW) 01:06:04
Oscar 19 01 Mar 00:51:03 00:53:48 15° 83° (E) 00:56:44 437.125/150
UNISAT 6 01 Mar 00:58:58 01:02:26 24° 301° (WNW) 01:05:51 437.425
PCSat 01 Mar 01:05:11 01:09:53 28° 342° (NNW) 01:14:35 145.827
KKS-1 01 Mar 01:08:56 01:12:42 28° 60° (ENE) 01:16:33 437.445
NANOSAT C BR1 01 Mar 01:10:11 01:13:52 28° 299° (WNW) 01:17:29 145.865
RS-15 01 Mar 01:16:38 01:27:29 77° 130° (SE) 01:38:40 29.354- 29.394
STARS 01 Mar 01:20:07 01:23:43 25° 59° (ENE) 01:27:21 437.465
TIGRISAT 01 Mar 01:25:37 01:28:18 16° 306° (NW) 01:30:54 435.000
SPROUT 01 Mar 01:25:41 01:28:16 15° 275° (W) 01:30:44 437.525
TISAT 1 01 Mar 01:37:29 01:39:25 12° 276° (W) 01:41:10 437.305
ANTELSAT 01 Mar 01:38:32 01:40:39 13° 309° (NW) 01:42:38 437.575/2403.000
QB50P1 01 Mar 01:43:08 01:45:57 17° 305° (NW) 01:48:39 145.935-145.965
Gurwin Techsat 1B 01 Mar 01:45:20 01:47:38 13° 80° (E) 01:50:10 435.225
DANDE 01 Mar 01:45:57 01:52:20 62° 287° (WNW) 01:57:04 436.750
QB50P2 01 Mar 01:46:21 01:49:03 16° 306° (NW) 01:51:36 145.880/145.840
SWISSCUBE 01 Mar 01:53:31 01:57:59 38° 263° (W) 02:02:29 437.505
BEESAT 3 01 Mar 01:55:11 01:59:23 87° 42° (NE) 02:03:31 437.485
BEESAT 01 Mar 02:02:41 02:07:03 34° 265° (W) 02:11:26 436.000
DUCHIFAT 1 01 Mar 02:03:48 02:05:44 13° 309° (NW) 02:07:33 145.980
BUGSAT 1 01 Mar 02:04:10 02:06:34 15° 307° (NW) 02:08:50 437.445
AIST 2 01 Mar 02:04:52 02:09:07 53° 35° (NE) 02:13:20 435.215
MOZHAYETS 4 01 Mar 02:09:58 02:10:36 10° 46° (NE) 02:11:24
BEESAT 2 01 Mar 02:18:32 02:22:44 73° 227° (SW) 02:26:53 435.950
ITAMSAT 1 01 Mar 02:23:11 02:27:45 30° 93° (E) 02:32:20 435.822/435.867
Oscar 19 01 Mar 02:29:00 02:34:10 76° 106° (ESE) 02:39:18 437.125/150
CUSAT 1 01 Mar 02:29:08 02:33:50 26° 296° (WNW) 02:37:31 437.405
M-CUBED/EXP-1 PRIME 01 Mar 02:29:15 02:31:57 23° 53° (NE) 02:34:49 437.505
ITUPSAT 1 01 Mar 02:29:40 02:33:29 23° 270° (W) 02:37:14 437.325
AUBIESAT-1 01 Mar 02:32:53 02:35:34 23° 53° (NE) 02:38:25 437.475
YUBILEINY 01 Mar 02:44:12 02:52:39 47° 63° (ENE) 03:01:09 435.215
KKS-1 01 Mar 02:44:47 02:49:10 52° 260° (W) 02:53:35 437.445
PCSat 01 Mar 02:50:27 02:54:53 25° 7° (N) 02:59:20 145.827
GONETS M04 01 Mar 02:54:25 02:58:38 14° 334° (NNW) 03:02:38
STARS 01 Mar 02:55:31 02:59:55 59° 258° (WSW) 03:04:20 437.465
HORYU 2 01 Mar 02:56:10 02:58:12 13° 84° (E) 03:00:26 437.375
SO-50 01 Mar 03:04:32 03:08:54 40° 125° (SE) 03:13:26 436.795
JAS-2 01 Mar 03:07:20 03:10:23 13° 75° (ENE) 03:13:56 435.910
Gurwin Techsat 1B 01 Mar 03:23:28 03:28:48 65° 102° (ESE) 03:34:06 435.225
AO-7 01 Mar 03:25:31 03:31:25 22° 84° (E) 03:37:36 29.400- 29.500
RS-15 01 Mar 03:29:46 03:40:36 60° 340° (NNW) 03:51:50 29.354- 29.394
DANDE 01 Mar 03:33:24 03:36:23 14° 306° (NW) 03:38:51 436.750
BEESAT 3 01 Mar 03:34:00 03:37:01 19° 243° (WSW) 03:39:54 437.485
MOZHAYETS 4 01 Mar 03:42:30 03:46:50 44° 66° (ENE) 03:51:13
AIST 2 01 Mar 03:43:41 03:47:39 36° 236° (SW) 03:51:31 435.215
BEESAT 2 01 Mar 03:57:58 04:00:18 14° 246° (WSW) 04:02:27 435.950
PRISM 01 Mar 03:58:44 03:59:00 10° 47° (NE) 03:59:26 437.425
CUBESAT XI-V 01 Mar 04:02:24 04:04:09 12° 47° (NE) 04:06:02 437.345
ITAMSAT 1 01 Mar 04:02:27 04:07:36 57° 294° (WNW) 04:12:43 435.822/435.867
M-CUBED/EXP-1 PRIME 01 Mar 04:03:34 04:06:46 42° 254° (WSW) 04:10:07 437.505
AUBIESAT-1 01 Mar 04:07:06 04:10:18 43° 254° (WSW) 04:13:41 437.475
Oscar 19 01 Mar 04:08:58 04:13:06 25° 305° (NW) 04:17:09 437.125/150
HORYU 2 01 Mar 04:31:13 04:35:42 80° 105° (ESE) 04:40:11 437.375
PCSat 01 Mar 04:34:26 04:39:37 42° 32° (NNE) 04:44:48 145.827
YUBILEINY 01 Mar 04:41:15 04:49:54 59° 268° (W) 04:58:28 435.215
SO-50 01 Mar 04:44:44 04:49:23 56° 327° (NNW) 04:54:13 436.795
JAS-2 01 Mar 04:50:16 04:57:12 51° 98° (E) 05:04:43 435.910
STRAND 1 01 Mar 04:59:22 05:03:26 25° 55° (NE) 05:07:36 437.568
GONETS M04 01 Mar 04:59:57 05:00:44 10° 8° (N) 05:01:37
Gurwin Techsat 1B 01 Mar 05:03:55 05:08:29 29° 303° (WNW) 05:12:58 435.225
AO-7 01 Mar 05:17:31 05:25:53 74° 108° (ESE) 05:34:11 29.400- 29.500
MOZHAYETS 4 01 Mar 05:20:08 05:24:14 31° 267° (W) 05:28:20
PRISM 01 Mar 05:29:37 05:33:37 47° 67° (ENE) 05:37:41 437.425
CUBESAT XI-V 01 Mar 05:36:06 05:40:39 51° 68° (ENE) 05:45:16 437.345
Cubesat XI-IV 01 Mar 05:36:54 05:39:48 15° 82° (E) 05:42:55 437.490
ITAMSAT 1 01 Mar 05:43:13 05:46:11 15° 314° (NW) 05:49:00 435.822/435.867
RS-15 01 Mar 05:44:13 05:55:06 55° 12° (NNE) 06:06:28 29.354- 29.394
CUTE-I 01 Mar 05:46:05 05:49:30 17° 84° (E) 05:53:05 437.470
HORYU 2 01 Mar 06:08:41 06:11:55 20° 305° (NW) 06:15:05 437.375
